Pullman, WA

12:36 PM PDT on September 25, 2017 (GMT -0700)
Pullman-Moscow Regional

Weather History for KPUW - March, 2014

Change the Weather History Date:

Saturday, March 8, 2014

  Actual Average Record
Temperature  
Mean Temperature 46 °F 39 °F  
Max Temperature 56 °F 48 °F 65 °F (1953)
Min Temperature 36 °F 31 °F 19 °F (1971)
Degree Days  
Heating Degree Days 19 26  
Month to date heating degree days 191 213  
Since 1 July heating degree days 5042 4916  
Cooling Degree Days 0 0  
Month to date cooling degree days 0 0  
Year to date cooling degree days 0 0  
Moisture  
Dew Point 35 °F    
Average Humidity 68    
Maximum Humidity 89    
Minimum Humidity 47    
Precipitation  
Precipitation 0.15 in 0.06 in 0.46 in (2017)
Month to date precipitation 1.01 0.47  
Year to date precipitation 5.45 3.81  
Sea Level Pressure  
Sea Level Pressure 30.12 in    
Wind  
Wind Speed 14 mph (SE)    
Max Wind Speed 22 mph    
Max Gust Speed 26 mph    
Visibility 10 miles    
Events Rain    
T = Trace of Precipitation, MM = Missing Value Source: NWS Daily Summary

Daily Weather History Graph

Daily Weather History Graph

Search for Another Location

Airport or City:

Trip Planner

Search our weather history database for the weather conditions in past years. The results will help you decide how hot, cold, wet, or windy it might be!

Date:

Astronomy

Mar. 08, 2014 Rise Set
Actual Time 6:14 AM PST 5:44 PM PST
Civil Twilight 5:44 AM PST 6:14 PM PST
Nautical Twilight 5:09 AM PST 6:49 PM PST
Astronomical Twilight 4:33 AM PST 7:25 PM PST
Moon 10:36 AM PST (3/8) 1:08 AM PST (3/8)
Length of Visible Light 12h 30m
Length of Day
11h 29m
First Quarter, 53% of the Moon is Illuminated
Mar 8
First Quarter
Mar 16
Full
Mar 23
Last Quarter
Mar 30
New
Apr 7
First Quarter

Hourly Weather History & Observations

Time (PST) Temp. Windchill Dew Point Humidity Pressure Visibility Wind Dir Wind Speed Gust Speed Precip Events Conditions
12:53 AM 37.9 °F 29.6 °F 34.0 °F 86% 30.27 in 10.0 mi East 13.8 mph - N/A   Clear
1:53 AM 37.9 °F 29.6 °F 34.0 °F 86% 30.24 in 10.0 mi East 13.8 mph - N/A   Clear
2:53 AM 37.0 °F 28.5 °F 33.1 °F 86% 30.23 in 10.0 mi East 13.8 mph - N/A   Clear
3:53 AM 37.0 °F 28.1 °F 32.0 °F 82% 30.24 in 10.0 mi East 15.0 mph - N/A   Clear
4:53 AM 36.0 °F 26.7 °F 32.0 °F 86% 30.24 in 10.0 mi East 15.0 mph - N/A   Clear
5:53 AM 36.0 °F 27.5 °F 32.0 °F 86% 30.23 in 10.0 mi East 12.7 mph - N/A   Clear
6:53 AM 37.0 °F 27.0 °F 30.9 °F 79% 30.20 in 10.0 mi East 18.4 mph - N/A   Clear
7:53 AM 39.0 °F 30.3 °F 32.0 °F 76% 30.21 in 10.0 mi East 16.1 mph - N/A   Clear
8:53 AM 43.0 °F 37.2 °F 34.0 °F 71% 30.22 in 10.0 mi East 10.4 mph - N/A   Clear
9:53 AM 46.0 °F 39.9 °F 34.0 °F 63% 30.18 in 10.0 mi ESE 13.8 mph - N/A   Clear
10:53 AM 48.0 °F - 35.1 °F 61% 30.16 in 10.0 mi ESE 16.1 mph - N/A   Clear
11:53 AM 48.9 °F - 36.0 °F 61% 30.13 in 10.0 mi ESE 15.0 mph - N/A   Clear
12:53 PM 51.1 °F - 35.1 °F 54% 30.11 in 10.0 mi SE 17.3 mph - N/A   Clear
1:53 PM 54.0 °F - 36.0 °F 51% 30.08 in 10.0 mi SE 15.0 mph 20.7 mph N/A   Clear
2:53 PM 55.9 °F - 36.0 °F 47% 30.06 in 10.0 mi SSE 15.0 mph - N/A   Overcast
3:53 PM 53.1 °F - 37.0 °F 55% 30.05 in 10.0 mi SE 12.7 mph - N/A   Overcast
4:53 PM 53.1 °F - 35.1 °F 50% 30.03 in 10.0 mi SSE 11.5 mph - N/A   Overcast
5:53 PM 51.1 °F - 35.1 °F 54% 30.03 in 10.0 mi SSE 9.2 mph - N/A   Overcast
6:53 PM 48.9 °F - 37.9 °F 66% 30.04 in 10.0 mi SE 8.1 mph - 0.00 in Rain Light Rain
7:53 PM 48.0 °F - 39.0 °F 71% 30.02 in 9.0 mi SE 12.7 mph - 0.02 in Rain Light Rain
8:53 PM 46.9 °F - 39.9 °F 77% 30.02 in 10.0 mi SE 12.7 mph - 0.03 in Rain Light Rain
9:53 PM 48.0 °F - 39.9 °F 74% 29.99 in 6.0 mi SSE 18.4 mph 25.3 mph 0.02 in Rain Light Rain
10:53 PM 48.0 °F - 39.9 °F 74% 29.97 in 6.0 mi SSE 16.1 mph - 0.03 in Rain Light Rain
11:53 PM 46.9 °F - 41.0 °F 80% 29.96 in 6.0 mi SSE 17.3 mph - 0.05 in Rain Light Rain